This demonstration page uses our WeatherBlox Daily Observations layout. Learn more.

Left ArrowRight Arrow

Hourly Observations for July 19, 2021

Temp ( °F °C ) Dew Point ( °F °C ) Humidity (%) Winds ( mph kmh ) Pressure ( in mb ) Visibility ( mi km ) Precip ( " mm )
12:53 am 00:53 Clear 73 22.8 60 15.6 64 64 E 10 17 29.97 1015 10 16 0.00 0.00
1:53 am 01:53 Clear 71 21.7 60 15.6 68 68 NE 7 11 29.97 1015 10 16 0.00 0.00
2:53 am 02:53 Clear 70 21.1 60 15.6 71 71 NE 12 19 29.97 1015 10 16 0.00 0.00
3:53 am 03:53 Clear 67 19.4 60 15.6 79 79 ENE 7 11 29.97 1015 9 14 0.00 0.00
4:53 am 04:53 Clear 64 17.8 59 15 84 84 NE 3 6 29.99 1016 9 14 0.00 0.00
5:53 am 05:53 Sunny with Mist and Fog 60 15.6 57 13.9 90 90 Calm 30.01 1016 6 10 0.00 0.00
6:53 am 06:53 Sunny with Mist and Fog 60 15.6 57 13.9 90 90 SW 6 9 30.02 1017 6 10 0.00 0.00
7:53 am 07:53 Sunny 66 18.9 60 15.6 81 81 ESE 5 7 30.01 1016 7 11 0.00 0.00
8:53 am 08:53 Sunny 70 21.1 62 16.7 76 76 W 7 11 30.04 1017 8 13 0.00 0.00
9:53 am 09:53 Sunny 75 23.9 62 16.7 64 64 WNW 12 19 30.05 1018 8 13 0.00 0.00
10:53 am 10:53 Hazy 77 25 61 16.1 58 58 WNW 3 6 30.04 1017 6 10 0.00 0.00
11:53 am 11:53 Sunny 85 29.4 62 16.7 46 46 ENE 13 20 30.00 1016 8 13 0.00 0.00
12:53 pm 12:53 Sunny 89 31.7 62 16.7 41 41 WNW 9 15 30.01 1016 10 16 0.00 0.00
1:53 pm 13:53 Hazy 83 28.3 60 15.6 46 46 NW 15 24 30.01 1016 6 10 0.00 0.00
2:53 pm 14:53 Sunny 87 30.6 62 16.7 43 43 N 14 22 29.98 1015 9 14 0.00 0.00
3:53 pm 15:53 Sunny 84 28.9 62 16.7 48 48 NW 15 24 30.01 1016 8 13 0.00 0.00
4:53 pm 16:53 Sunny 84 28.9 63 17.2 49 49 N 9 15 30.04 1017 10 16 0.00 0.00
5:53 pm 17:53 Sunny 80 26.7 61 16.1 52 52 NW 15 24 30.04 1017 9 14 0.00 0.00
6:53 pm 18:53 Mostly Sunny 76 24.4 62 16.7 62 62 NW 10 17 30.06 1018 10 16 0.00 0.00
7:53 pm 19:53 Mostly Cloudy 74 23.3 61 16.1 64 64 NNW 9 15 30.06 1018 7 11 0.00 0.00
8:53 pm 20:53 Mostly Cloudy 73 22.8 63 17.2 71 71 SE 10 17 30.05 1018 7 11 0.00 0.00
9:53 pm 21:53 Mostly Cloudy 73 22.8 63 17.2 71 71 E 10 17 30.03 1017 10 16 0.00 0.00
10:53 pm 22:53 Mostly Clear 72 22.2 63 17.2 73 73 NE 9 15 30.04 1017 10 16 0.00 0.00
11:53 pm 23:53 Mostly Cloudy 71 21.7 64 17.8 79 79 ENE 8 13 30.03 1017 10 16 0.00 0.00

Powered by AerisWeather